Regional Weather Roundup
Issued by NWS

Home | Current Version | Previous Version | Graphics & Text | Print | Product List | Glossary On
Versions: 1 2 3 4 5 6 7 8 9 10 11 12 13 14 15 16 17 18 19 20 21 22 23 24 25 26 27 28 29 30 31 32 33 34 35 36 37 38 39 40 41 42 43 44 45 46 47 48 49 50
000
ASUS45 KPSR 290110
RWRAZ

ARIZONA REGIONAL HOURLY WEATHER ROUNDUP
NATIONAL WEATHER SERVICE PHOENIX AZ
600 PM MST WED JAN 28 2015

NOTE: FAIR INDICATES FEW OR NO CLOUDS BELOW 12,000 FEET WITH NO
SIGNIFICANT WEATHER AND/OR OBSTRUCTIONS TO VISIBILITY.

AZZ001>003-036-290200-
NORTHWEST ARIZONA

CITY           SKY/WX    TMP DP  RH WIND       PRES   REMARKS
BULLHEAD CITY  CLOUDY    66  48  52 N16       30.13S
KINGMAN        CLOUDY    55  44  66 NE6       30.19R
$$

AZZ004>008-015-016-018-290200-
NORTH CENTRAL ARIZONA

CITY           SKY/WX    TMP DP  RH WIND       PRES   REMARKS
GRAND CANYON   CLOUDY    42  31  64 NE6       30.26R
PRESCOTT       CLOUDY    53  28  38 NW5       30.19S
FLAGSTAFF      CLOUDY    45  31  58 E3        30.26R
PAYSON         MOCLDY    55  41  58 W3        30.21F
$$

AZZ009>014-017-290200-
NORTHEAST ARIZONA

CITY           SKY/WX    TMP DP  RH WIND       PRES   REMARKS
WINSLOW        MOCLDY    53  34  48 NW5       30.21R
SAINT JOHNS    MOCLDY    50  26  39 CALM      30.20R
WINDOW ROCK    MOCLDY    47  30  51 E8        30.24R
SHOW LOW       CLOUDY    48  32  53 N5        30.26R
$$

AZZ023-290200-
GREATER PHOENIX AREA

CITY           SKY/WX    TMP DP  RH WIND       PRES   REMARKS
PHOENIX        CLOUDY    73  46  38 NW8       30.04F
BUCKEYE          N/A     66  57  72 NW3       30.06F
GLENDALE       MOCLDY    70  54  56 S6        30.06F
LUKE AFB       NOT AVBL
DEER VALLEY    CLOUDY    69  43  38 W3        30.06F
SCOTTSDALE     CLOUDY    70  45  40 CALM      30.08S
MESA-FALCON    CLOUDY    68  46  45 W7        30.06S
MESA-GATEWAY   CLOUDY    66  52  59 NW7       30.08F
CHANDLER       MOCLDY    70  48  46 VRB5      30.05F
$$

AZZ027-028-290200-
SOUTHWEST MARICOPA COUNTY AND PINAL COUNTY

CITY           SKY/WX    TMP DP  RH WIND       PRES   REMARKS
CASA GRANDE    CLOUDY    68  48  49 CALM      30.07S
GILA BEND      CLOUDY    68  54  60 N1        30.05F
$$

AZZ503-504-507>509-290200-
SOUTHEAST ARIZONA

CITY           SKY/WX    TMP DP  RH WIND       PRES   REMARKS
TUCSON         MOCLDY    69  47  45 N9        30.09S
DAVIS-MONTHAN  CLOUDY    66  45  45 NW8       30.07S
RYAN FIELD       N/A     68  52  56 NW14      30.09R
NOGALES        MOCLDY    66  35  31 CALM      30.11R
SIERRA VISTA   MOCLDY    64  30  27 N3        30.14S
DOUGLAS        PTCLDY    65  28  24 E6        30.12S
SAFFORD        MOCLDY    67  34  29 CALM      30.08S
$$

AZZ020-021-025-026-031-290200-
SOUTHWEST ARIZONA

CITY           SKY/WX    TMP DP  RH WIND       PRES   REMARKS
YUMA           CLOUDY    69  51  52 N8        30.08R
$$

CAZ031-033-041-043-047-048-061-290200-
SOUTHERN CALIFORNIA

CITY           SKY/WX    TMP DP  RH WIND       PRES   REMARKS
DOWNTOWN L.A.  CLOUDY    68  51  54 CALM      30.05F
L.A. AIRPORT   CLOUDY    65  50  58 CALM      30.07S
SAN DIEGO      CLOUDY    69  49  48 N7        30.08R
BURBANK        CLOUDY    70  47  43 CALM      30.07S
ONTARIO        CLOUDY    70  42  36 NE5       30.07S
RIVERSIDE      CLOUDY    68  45  43 NE6       30.08S
PALM SPRINGS   CLOUDY    71  43  36 VRB5      30.12S
EL CENTRO NAS  CLOUDY    68  51  54 NW3       30.08S
IMPERIAL       CLOUDY    69  51  52 CALM      30.07F
BLYTHE         CLOUDY    68  51  54 N8        30.09S
NEEDLES        CLOUDY    67  49  52 NW5       30.13R
$$

NVZ020-UTZ003-290200-
SOUTHERN NEVADA-UTAH

CITY           SKY/WX    TMP DP  RH WIND       PRES   REMARKS
LAS VEGAS      CLOUDY    62  42  47 S3        30.15S
SALT LAKE CITY MOCLDY    42  36  79 N7        30.31R
$$

NMZ009-TXZ055-290200-
NEW MEXICO-WEST TEXAS

CITY           SKY/WX    TMP DP  RH WIND       PRES   REMARKS
ALBUQUERQUE    MOCLDY    55  28  35 N9        30.19R
EL PASO        MOCLDY    65  38  36 SW7       30.13R
$$


........................KEY........................
SKY/WX - SKY CONDITION/WEATHER
TMP    - TEMPERATURE IN FAHRENHEIT
DP     - DEW POINT IN FAHRENHEIT
RH     - RELATIVE HUMIDITY IN PERCENT
WIND   - DIRECTION AND SPEED IN MILES PER HOUR (MPH)
VRB    - VARIABLE WIND DIRECTION
PRES   - MEAN SEA LEVEL PRESSURE IN INCHES OF MERCURY
         F - FALLING PRESSURE   R - RISING PRESSURE
         S - STEADY PRESSURE
VSB    - VISIBILITY IN MILES
HX     - HEAT INDEX IN FAHRENHEIT
WCI    - WIND CHILL INDEX IN FAHRENHEIT
TC     - TEMPERATURE IN CELSIUS WHICH IS ALSO KNOWN AS
         TEMPERATURE IN CENTIGRADE
AFB    - AIR FORCE BASE
         LUKE AFB IS LUKE AIR FORCE BASE
         DAVIS-MONTHAN IS DAVIS-MONTHAN AIR FORCE BASE
NAS    - NAVAL AIR STATION
         EL CENTRO NAS IS EL CENTRO NAVAL AIR STATION
N/A    - NOT AVAILABLE


USA.gov is the U.S. government's official web portal to all federal, state and local government web resources and services.